Time,TemperatureF,DewpointF,PressureIn,WindDirection,WindDirectionDegrees,WindSpeedMPH,WindSpeedGustMPH,Humidity,HourlyPrecipIn,Conditions,Clouds,dailyrainin,SoftwareType,DateUTC
2013-02-12 00:00:00,1.2,-6.0,29.36,SW,221,0.0,0.0,71,0.00,,,0.00,Weather View 32 v70,2013-02-12 09:00:00,
2013-02-12 00:05:00,0.9,-6.3,29.36,SW,221,0.0,0.0,71,0.00,,,0.00,Weather View 32 v70,2013-02-12 09:05:00,
2013-02-12 00:10:00,0.6,-6.6,29.36,SW,221,0.0,0.0,71,0.00,,,0.00,Weather View 32 v70,2013-02-12 09:10:00,
2013-02-12 00:15:00,0.4,-6.5,29.35,SW,221,0.0,0.0,72,0.00,,,0.00,Weather View 32 v70,2013-02-12 09:15:00,
2013-02-12 00:20:00,0.1,-7.1,29.36,SW,221,0.0,0.0,71,0.00,,,0.00,Weather View 32 v70,2013-02-12 09:20:00,
2013-02-12 00:25:00,-0.2,-7.3,29.36,SW,221,0.0,0.0,71,0.00,,,0.00,Weather View 32 v70,2013-02-12 09:25:00,
2013-02-12 00:30:00,-0.5,-7.9,29.36,SW,221,0.0,0.0,70,0.00,,,0.00,Weather View 32 v70,2013-02-12 09:30:00,
2013-02-12 00:35:00,-0.8,-7.9,29.36,SW,221,0.0,0.0,71,0.00,,,0.00,Weather View 32 v70,2013-02-12 09:35:00,
2013-02-12 00:40:00,-1.0,-8.1,29.36,SW,221,0.0,0.0,71,0.00,,,0.00,Weather View 32 v70,2013-02-12 09:40:00,
2013-02-12 00:45:00,-1.2,-8.6,29.36,SW,221,0.0,0.0,70,0.00,,,0.00,Weather View 32 v70,2013-02-12 09:45:00,
2013-02-12 00:50:00,-1.4,-8.8,29.36,SW,221,0.0,0.0,70,0.00,,,0.00,Weather View 32 v70,2013-02-12 09:50:00,
2013-02-12 00:55:00,-1.6,-9.0,29.36,SW,221,0.0,0.0,70,0.00,,,0.00,Weather View 32 v70,2013-02-12 09:55:00,
2013-02-12 01:00:00,-1.9,-9.3,29.36,SW,221,0.0,0.0,70,0.00,,,0.00,Weather View 32 v70,2013-02-12 10:00:00,
2013-02-12 01:05:00,-2.1,-9.5,29.36,SW,221,0.0,0.0,70,0.00,,,0.00,Weather View 32 v70,2013-02-12 10:05:00,
2013-02-12 01:10:00,-2.3,-9.7,29.36,SW,220,0.0,0.0,70,0.00,,,0.00,Weather View 32 v70,2013-02-12 10:10:00,
2013-02-12 01:15:00,-2.5,-9.9,29.36,SW,221,0.0,0.0,70,0.00,,,0.00,Weather View 32 v70,2013-02-12 10:15:00,
2013-02-12 01:20:00,-2.9,-10.5,29.36,SW,221,0.0,0.0,69,0.00,,,0.00,Weather View 32 v70,2013-02-12 10:20:00,
2013-02-12 01:25:00,-3.1,-10.7,29.36,SW,221,0.0,0.0,69,0.00,,,0.00,Weather View 32 v70,2013-02-12 10:25:00,
2013-02-12 01:30:00,-3.3,-10.9,29.36,SW,221,0.0,0.0,69,0.00,,,0.00,Weather View 32 v70,2013-02-12 10:30:00,
2013-02-12 01:35:00,-3.5,-11.4,29.36,SW,221,0.0,0.0,68,0.00,,,0.00,Weather View 32 v70,2013-02-12 10:35:00,
2013-02-12 01:40:00,-3.6,-11.5,29.36,SW,221,0.0,0.0,68,0.00,,,0.00,Weather View 32 v70,2013-02-12 10:40:00,
2013-02-12 01:45:00,-3.8,-11.7,29.36,SW,221,0.0,0.0,68,0.00,,,0.00,Weather View 32 v70,2013-02-12 10:45:00,
2013-02-12 01:50:00,-4.0,-11.9,29.36,SW,221,0.0,0.0,68,0.00,,,0.00,Weather View 32 v70,2013-02-12 10:50:00,
2013-02-12 01:55:00,-4.1,-12.0,29.37,SW,221,0.0,0.0,68,0.00,,,0.00,Weather View 32 v70,2013-02-12 10:55:00,
2013-02-12 02:00:00,-4.3,-12.2,29.36,SW,221,0.0,0.0,68,0.00,,,0.00,Weather View 32 v70,2013-02-12 11:00:00,
2013-02-12 02:05:00,-4.5,-12.4,29.36,SW,221,0.0,0.0,68,0.00,,,0.00,Weather View 32 v70,2013-02-12 11:05:00,
2013-02-12 02:10:00,-4.7,-12.6,29.36,SW,221,0.0,0.0,68,0.00,,,0.00,Weather View 32 v70,2013-02-12 11:10:00,
2013-02-12 02:15:00,-4.9,-13.0,29.36,SW,221,0.0,0.0,67,0.00,,,0.00,Weather View 32 v70,2013-02-12 11:15:00,
2013-02-12 02:20:00,-5.2,-13.3,29.36,SW,221,0.0,0.0,67,0.00,,,0.00,Weather View 32 v70,2013-02-12 11:20:00,
2013-02-12 02:25:00,-5.4,-13.8,29.36,SW,221,0.0,0.0,66,0.00,,,0.00,Weather View 32 v70,2013-02-12 11:25:00,
2013-02-12 02:30:00,-5.7,-14.1,29.36,SW,221,0.0,0.0,66,0.00,,,0.00,Weather View 32 v70,2013-02-12 11:30:00,
2013-02-12 02:35:00,-6.0,-14.7,29.36,SW,220,0.0,0.0,65,0.00,,,0.00,Weather View 32 v70,2013-02-12 11:35:00,
2013-02-12 02:40:00,-6.2,-14.9,29.36,SW,221,0.0,0.0,65,0.00,,,0.00,Weather View 32 v70,2013-02-12 11:40:00,
2013-02-12 02:45:00,-6.5,-15.2,29.36,SW,221,0.0,0.0,65,0.00,,,0.00,Weather View 32 v70,2013-02-12 11:45:00,
2013-02-12 02:50:00,-6.8,-15.5,29.36,SW,221,0.0,0.0,65,0.00,,,0.00,Weather View 32 v70,2013-02-12 11:50:00,
2013-02-12 02:55:00,-6.9,-15.3,29.36,SW,221,0.0,0.0,66,0.00,,,0.00,Weather View 32 v70,2013-02-12 11:55:00,
2013-02-12 03:00:00,-6.9,-15.3,29.36,SW,221,0.0,0.0,66,0.00,,,0.00,Weather View 32 v70,2013-02-12 12:00:00,
2013-02-12 03:05:00,-6.9,-15.3,29.36,SW,221,0.0,0.0,66,0.00,,,0.00,Weather View 32 v70,2013-02-12 12:05:00,
2013-02-12 03:10:00,-6.8,-15.2,29.36,SW,221,0.0,0.0,66,0.00,,,0.00,Weather View 32 v70,2013-02-12 12:10:00,
2013-02-12 03:15:00,-7.1,-15.7,29.36,SW,221,0.0,0.0,65,0.00,,,0.00,Weather View 32 v70,2013-02-12 12:15:00,
2013-02-12 03:20:00,-7.5,-16.1,29.36,SW,221,0.0,0.0,65,0.00,,,0.00,Weather View 32 v70,2013-02-12 12:20:00,
2013-02-12 03:25:00,-7.9,-16.5,29.36,SW,221,0.0,0.0,65,0.00,,,0.00,Weather View 32 v70,2013-02-12 12:25:00,
2013-02-12 03:30:00,-8.1,-17.0,29.35,SW,221,0.0,0.0,64,0.00,,,0.00,Weather View 32 v70,2013-02-12 12:30:00,
2013-02-12 03:35:00,-8.2,-16.8,29.35,SW,221,0.0,0.0,65,0.00,,,0.00,Weather View 32 v70,2013-02-12 12:35:00,
2013-02-12 03:40:00,-8.3,-16.9,29.36,SW,221,0.0,1.0,65,0.00,,,0.00,Weather View 32 v70,2013-02-12 12:40:00,
2013-02-12 03:45:00,-8.5,-17.4,29.35,SW,221,0.0,1.0,64,0.00,,,0.00,Weather View 32 v70,2013-02-12 12:45:00,
2013-02-12 03:50:00,-8.7,-17.6,29.35,SW,221,0.0,1.0,64,0.00,,,0.00,Weather View 32 v70,2013-02-12 12:50:00,
2013-02-12 03:55:00,-8.9,-17.8,29.35,SW,221,0.0,1.0,64,0.00,,,0.00,Weather View 32 v70,2013-02-12 12:55:00,
2013-02-12 04:00:00,-9.1,-18.0,29.35,SW,221,0.0,1.0,64,0.00,,,0.00,Weather View 32 v70,2013-02-12 13:00:00,
2013-02-12 04:05:00,-9.4,-18.5,29.36,SW,221,0.0,1.0,63,0.00,,,0.00,Weather View 32 v70,2013-02-12 13:05:00,
2013-02-12 04:10:00,-9.4,-18.2,29.35,SW,221,0.0,1.0,64,0.00,,,0.00,Weather View 32 v70,2013-02-12 13:10:00,
2013-02-12 04:15:00,-9.5,-18.3,29.35,SW,221,0.0,1.0,64,0.00,,,0.00,Weather View 32 v70,2013-02-12 13:15:00,
2013-02-12 04:20:00,-9.6,-18.4,29.35,SW,221,0.0,1.0,64,0.00,,,0.00,Weather View 32 v70,2013-02-12 13:20:00,
2013-02-12 04:25:00,-9.8,-18.9,29.35,SW,220,0.0,1.0,63,0.00,,,0.00,Weather View 32 v70,2013-02-12 13:25:00,
2013-02-12 04:30:00,-10.2,-19.6,29.35,SW,221,0.0,1.0,62,0.00,,,0.00,Weather View 32 v70,2013-02-12 13:30:00,
2013-02-12 04:35:00,-10.5,-19.9,29.35,SW,221,0.0,1.0,62,0.00,,,0.00,Weather View 32 v70,2013-02-12 13:35:00,
2013-02-12 04:40:00,-10.8,-20.2,29.35,SW,221,0.0,0.0,62,0.00,,,0.00,Weather View 32 v70,2013-02-12 13:40:00,
2013-02-12 04:45:00,-11.1,-20.5,29.35,SW,221,0.0,0.0,62,0.00,,,0.00,Weather View 32 v70,2013-02-12 13:45:00,
2013-02-12 04:50:00,-11.1,-20.5,29.35,SW,221,0.0,0.0,62,0.00,,,0.00,Weather View 32 v70,2013-02-12 13:50:00,
2013-02-12 04:55:00,-11.1,-20.2,29.35,SW,221,0.0,0.0,63,0.00,,,0.00,Weather View 32 v70,2013-02-12 13:55:00,
2013-02-12 05:00:00,-11.2,-20.3,29.35,SW,221,0.0,0.0,63,0.00,,,0.00,Weather View 32 v70,2013-02-12 14:00:00,
2013-02-12 05:05:00,-11.5,-20.9,29.35,SW,221,0.0,0.0,62,0.00,,,0.00,Weather View 32 v70,2013-02-12 14:05:00,
2013-02-12 05:10:00,-11.7,-21.0,29.35,SW,221,0.0,0.0,62,0.00,,,0.00,Weather View 32 v70,2013-02-12 14:10:00,
2013-02-12 05:15:00,-11.8,-21.1,29.35,SW,221,0.0,0.0,62,0.00,,,0.00,Weather View 32 v70,2013-02-12 14:15:00,
2013-02-12 05:20:00,-12.0,-21.6,29.35,SW,221,0.0,0.0,61,0.00,,,0.00,Weather View 32 v70,2013-02-12 14:20:00,
2013-02-12 05:25:00,-12.1,-21.4,29.36,SW,221,0.0,0.0,62,0.00,,,0.00,Weather View 32 v70,2013-02-12 14:25:00,
2013-02-12 05:30:00,-11.9,-20.9,29.36,SW,221,0.0,0.0,63,0.00,,,0.00,Weather View 32 v70,2013-02-12 14:30:00,
2013-02-12 05:35:00,-11.6,-20.6,29.36,SW,221,0.0,0.0,63,0.00,,,0.00,Weather View 32 v70,2013-02-12 14:35:00,
2013-02-12 05:40:00,-11.3,-20.1,29.36,SW,221,0.0,0.0,64,0.00,,,0.00,Weather View 32 v70,2013-02-12 14:40:00,
2013-02-12 05:45:00,-11.3,-20.4,29.36,SW,221,0.0,0.0,63,0.00,,,0.00,Weather View 32 v70,2013-02-12 14:45:00,
2013-02-12 05:50:00,-11.5,-20.5,29.36,SW,221,0.0,0.0,63,0.00,,,0.00,Weather View 32 v70,2013-02-12 14:50:00,
2013-02-12 05:55:00,-11.6,-21.0,29.36,SW,221,0.0,0.0,62,0.00,,,0.00,Weather View 32 v70,2013-02-12 14:55:00,
2013-02-12 06:00:00,-11.8,-21.1,29.36,SW,221,0.0,0.0,62,0.00,,,0.00,Weather View 32 v70,2013-02-12 15:00:00,
2013-02-12 06:05:00,-12.1,-21.7,29.36,SW,221,0.0,0.0,61,0.00,,,0.00,Weather View 32 v70,2013-02-12 15:05:00,
2013-02-12 06:10:00,-12.3,-21.9,29.36,SW,221,0.0,0.0,62,0.00,,,0.00,Weather View 32 v70,2013-02-12 15:10:00,
2013-02-12 06:15:00,-12.6,-22.2,29.36,SW,221,0.0,0.0,61,0.00,,,0.00,Weather View 32 v70,2013-02-12 15:15:00,
2013-02-12 06:20:00,-12.8,-22.4,29.36,SW,221,0.0,0.0,61,0.00,,,0.00,Weather View 32 v70,2013-02-12 15:20:00,
2013-02-12 06:25:00,-12.9,-22.5,29.36,SW,221,0.0,0.0,61,0.00,,,0.00,Weather View 32 v70,2013-02-12 15:25:00,
2013-02-12 06:30:00,-13.1,-22.7,29.36,SW,221,0.0,0.0,61,0.00,,,0.00,Weather View 32 v70,2013-02-12 15:30:00,
2013-02-12 06:35:00,-13.3,-22.9,29.36,SW,221,0.0,0.0,61,0.00,,,0.00,Weather View 32 v70,2013-02-12 15:35:00,
2013-02-12 06:40:00,-13.4,-23.0,29.36,SW,221,0.0,0.0,61,0.00,,,0.00,Weather View 32 v70,2013-02-12 15:40:00,
2013-02-12 06:45:00,-13.5,-23.1,29.36,SW,221,0.0,0.0,61,0.00,,,0.00,Weather View 32 v70,2013-02-12 15:45:00,
2013-02-12 06:50:00,-13.4,-22.7,29.36,SW,221,0.0,0.0,62,0.00,,,0.00,Weather View 32 v70,2013-02-12 15:50:00,
2013-02-12 06:55:00,-13.4,-23.0,29.36,SW,221,0.0,0.0,61,0.00,,,0.00,Weather View 32 v70,2013-02-12 15:55:00,
2013-02-12 07:00:00,-13.5,-23.1,29.36,SW,220,0.0,0.0,61,0.00,,,0.00,Weather View 32 v70,2013-02-12 16:00:00,
2013-02-12 07:05:00,-13.7,-23.6,29.36,SW,221,0.0,0.0,60,0.00,,,0.00,Weather View 32 v70,2013-02-12 16:05:00,
2013-02-12 07:10:00,-13.8,-23.4,29.36,SW,221,0.0,0.0,61,0.00,,,0.00,Weather View 32 v70,2013-02-12 16:10:00,
2013-02-12 07:15:00,-14.0,-23.5,29.36,SW,221,0.0,0.0,61,0.00,,,0.00,Weather View 32 v70,2013-02-12 16:15:00,
2013-02-12 07:20:00,-14.1,-23.9,29.36,SW,221,0.0,0.0,60,0.00,,,0.00,Weather View 32 v70,2013-02-12 16:20:00,
2013-02-12 07:25:00,-14.3,-24.1,29.36,SW,221,0.0,0.0,60,0.00,,,0.00,Weather View 32 v70,2013-02-12 16:25:00,
2013-02-12 07:30:00,-14.3,-24.1,29.36,SW,220,0.0,0.0,60,0.00,,,0.00,Weather View 32 v70,2013-02-12 16:30:00,
2013-02-12 07:35:00,-14.4,-24.2,29.36,SW,221,0.0,0.0,60,0.00,,,0.00,Weather View 32 v70,2013-02-12 16:35:00,
2013-02-12 07:40:00,-14.5,-24.3,29.36,SW,221,0.0,0.0,60,0.00,,,0.00,Weather View 32 v70,2013-02-12 16:40:00,
2013-02-12 07:45:00,-14.4,-24.2,29.36,SW,221,0.0,0.0,60,0.00,,,0.00,Weather View 32 v70,2013-02-12 16:45:00,
2013-02-12 07:50:00,-14.3,-23.8,29.36,SW,221,0.0,0.0,61,0.00,,,0.00,Weather View 32 v70,2013-02-12 16:50:00,
2013-02-12 07:55:00,-14.4,-23.9,29.37,SW,221,0.0,0.0,61,0.00,,,0.00,Weather View 32 v70,2013-02-12 16:55:00,
2013-02-12 08:00:00,-14.4,-23.9,29.36,SW,221,0.0,0.0,61,0.00,,,0.00,Weather View 32 v70,2013-02-12 17:00:00,
2013-02-12 08:05:00,-14.5,-24.0,29.36,SW,221,0.0,0.0,61,0.00,,,0.00,Weather View 32 v70,2013-02-12 17:05:00,
2013-02-12 08:10:00,-14.3,-23.8,29.37,SW,221,0.0,0.0,61,0.00,,,0.00,Weather View 32 v70,2013-02-12 17:10:00,
2013-02-12 08:15:00,-14.3,-23.8,29.37,SW,221,0.0,0.0,61,0.00,,,0.00,Weather View 32 v70,2013-02-12 17:15:00,
2013-02-12 08:20:00,-14.4,-23.9,29.37,SW,221,0.0,0.0,61,0.00,,,0.00,Weather View 32 v70,2013-02-12 17:20:00,
2013-02-12 08:25:00,-14.4,-24.2,29.37,SW,221,0.0,1.0,60,0.00,,,0.00,Weather View 32 v70,2013-02-12 17:25:00,
2013-02-12 08:30:00,-14.5,-24.3,29.37,SW,221,0.0,1.0,60,0.00,,,0.00,Weather View 32 v70,2013-02-12 17:30:00,
2013-02-12 08:35:00,-14.6,-24.4,29.37,SW,221,0.0,2.0,60,0.00,,,0.00,Weather View 32 v70,2013-02-12 17:35:00,
2013-02-12 08:40:00,-14.6,-24.4,29.37,SW,221,0.0,2.0,60,0.00,,,0.00,Weather View 32 v70,2013-02-12 17:40:00,
2013-02-12 08:45:00,-14.6,-24.4,29.37,SW,221,0.0,2.0,60,0.00,,,0.00,Weather View 32 v70,2013-02-12 17:45:00,
2013-02-12 08:50:00,-14.6,-24.4,29.37,SW,221,0.0,2.0,60,0.00,,,0.00,Weather View 32 v70,2013-02-12 17:50:00,
2013-02-12 08:55:00,-14.7,-24.5,29.37,SW,221,0.0,2.0,60,0.00,,,0.00,Weather View 32 v70,2013-02-12 17:55:00,
2013-02-12 09:00:00,-14.8,-24.6,29.37,SW,221,0.0,2.0,60,0.00,,,0.00,Weather View 32 v70,2013-02-12 18:00:00,
2013-02-12 09:05:00,-14.9,-24.7,29.38,SW,221,0.0,2.0,60,0.00,,,0.00,Weather View 32 v70,2013-02-12 18:05:00,
2013-02-12 09:10:00,-14.6,-24.1,29.38,SW,221,0.0,2.0,61,0.00,,,0.00,Weather View 32 v70,2013-02-12 18:10:00,
2013-02-12 09:15:00,-14.5,-24.0,29.38,SW,221,0.0,2.0,61,0.00,,,0.00,Weather View 32 v70,2013-02-12 18:15:00,
2013-02-12 09:20:00,-14.5,-24.0,29.38,SW,221,0.0,2.0,61,0.00,,,0.00,Weather View 32 v70,2013-02-12 18:20:00,
2013-02-12 09:25:00,-14.4,-23.9,29.38,SW,221,0.0,2.0,61,0.00,,,0.00,Weather View 32 v70,2013-02-12 18:25:00,
2013-02-12 09:30:00,-14.3,-23.8,29.38,SW,217,0.0,2.0,61,0.00,,,0.00,Weather View 32 v70,2013-02-12 18:30:00,
2013-02-12 09:35:00,-13.9,-23.1,29.39,SW,217,0.0,2.0,62,0.00,,,0.00,Weather View 32 v70,2013-02-12 18:35:00,
2013-02-12 09:40:00,-13.5,-22.8,29.39,SW,217,0.0,2.0,62,0.00,,,0.00,Weather View 32 v70,2013-02-12 18:40:00,
2013-02-12 09:45:00,-13.2,-22.5,29.39,SW,217,0.0,2.0,62,0.00,,,0.00,Weather View 32 v70,2013-02-12 18:45:00,
2013-02-12 09:50:00,-13.0,-22.3,29.39,SW,217,0.0,2.0,62,0.00,,,0.00,Weather View 32 v70,2013-02-12 18:50:00,
2013-02-12 09:55:00,-12.6,-21.6,29.39,SW,217,0.0,2.0,63,0.00,,,0.00,Weather View 32 v70,2013-02-12 18:55:00,
2013-02-12 10:00:00,-12.5,-21.8,29.39,SW,217,0.0,2.0,62,0.00,,,0.00,Weather View 32 v70,2013-02-12 19:00:00,
2013-02-12 10:05:00,-12.4,-21.7,29.40,SW,217,0.0,2.0,62,0.00,,,0.00,Weather View 32 v70,2013-02-12 19:05:00,
2013-02-12 10:10:00,-12.0,-21.0,29.40,SW,217,0.0,2.0,63,0.00,,,0.00,Weather View 32 v70,2013-02-12 19:10:00,
2013-02-12 10:15:00,-11.8,-20.8,29.40,SW,217,0.0,2.0,63,0.00,,,0.00,Weather View 32 v70,2013-02-12 19:15:00,
2013-02-12 10:20:00,-11.5,-20.5,29.40,SW,217,0.0,2.0,63,0.00,,,0.00,Weather View 32 v70,2013-02-12 19:20:00,
2013-02-12 10:25:00,-11.2,-20.0,29.40,SW,217,0.0,2.0,64,0.00,,,0.00,Weather View 32 v70,2013-02-12 19:25:00,
2013-02-12 10:30:00,-10.8,-19.3,29.40,SW,217,0.0,2.0,65,0.00,,,0.00,Weather View 32 v70,2013-02-12 19:30:00,
2013-02-12 10:35:00,-10.3,-18.8,29.40,SW,217,0.0,2.0,65,0.00,,,0.00,Weather View 32 v70,2013-02-12 19:35:00,
2013-02-12 10:40:00,-9.5,-17.7,29.40,SW,217,0.0,2.0,66,0.00,,,0.00,Weather View 32 v70,2013-02-12 19:40:00,
2013-02-12 10:45:00,-8.5,-16.2,29.40,SW,217,0.0,2.0,68,0.00,,,0.00,Weather View 32 v70,2013-02-12 19:45:00,
2013-02-12 10:50:00,-7.8,-15.5,29.41,SW,217,0.0,2.0,68,0.00,,,0.00,Weather View 32 v70,2013-02-12 19:50:00,
2013-02-12 10:55:00,-7.2,-15.0,29.40,SW,217,0.0,2.0,68,0.00,,,0.00,Weather View 32 v70,2013-02-12 19:55:00,
2013-02-12 11:00:00,-6.1,-13.6,29.40,SW,217,0.0,2.0,69,0.00,,,0.00,Weather View 32 v70,2013-02-12 20:00:00,
2013-02-12 11:05:00,-5.4,-12.9,29.41,SW,217,0.0,2.0,69,0.00,,,0.00,Weather View 32 v70,2013-02-12 20:05:00,
2013-02-12 11:10:00,-5.0,-12.5,29.40,SW,217,0.0,2.0,69,0.00,,,0.00,Weather View 32 v70,2013-02-12 20:10:00,
2013-02-12 11:15:00,-4.5,-12.1,29.41,SW,217,0.0,2.0,69,0.00,,,0.00,Weather View 32 v70,2013-02-12 20:15:00,
2013-02-12 11:20:00,-4.0,-11.6,29.41,SW,217,0.0,2.0,69,0.00,,,0.00,Weather View 32 v70,2013-02-12 20:20:00,
2013-02-12 11:25:00,-3.2,-10.5,29.41,SW,217,0.0,2.0,70,0.00,,,0.00,Weather View 32 v70,2013-02-12 20:25:00,
2013-02-12 11:29:00,-2.5,-9.6,29.41,SW,217,0.0,2.0,71,0.00,,,0.00,Weather View 32 v70,2013-02-12 20:29:00,
2013-02-12 11:34:00,-1.9,-9.0,29.41,SW,217,0.0,2.0,71,0.00,,,0.00,Weather View 32 v70,2013-02-12 20:34:00,
2013-02-12 11:39:00,-1.5,-8.3,29.41,SW,217,0.0,2.0,72,0.00,,,0.00,Weather View 32 v70,2013-02-12 20:39:00,
2013-02-12 11:44:00,-1.1,-8.2,29.41,SW,217,0.0,2.0,71,0.00,,,0.00,Weather View 32 v70,2013-02-12 20:44:00,
2013-02-12 11:49:00,-0.7,-7.5,29.41,SW,217,0.0,2.0,72,0.00,,,0.00,Weather View 32 v70,2013-02-12 20:49:00,
2013-02-12 11:55:00,-0.2,-7.1,29.41,SW,217,0.0,2.0,72,0.00,,,0.00,Weather View 32 v70,2013-02-12 20:55:00,
2013-02-12 12:00:00,0.2,-6.7,29.41,SW,217,0.0,2.0,72,0.00,,,0.00,Weather View 32 v70,2013-02-12 21:00:00,
2013-02-12 12:05:00,0.8,-5.8,29.41,SW,217,1.0,1.0,73,0.00,,,0.00,Weather View 32 v70,2013-02-12 21:05:00,
2013-02-12 12:10:00,1.5,-5.1,29.41,SW,217,0.0,1.0,73,0.00,,,0.00,Weather View 32 v70,2013-02-12 21:10:00,
2013-02-12 12:14:00,2.0,-4.6,29.41,SW,217,0.0,1.0,73,0.00,,,0.00,Weather View 32 v70,2013-02-12 21:14:00,
2013-02-12 12:19:00,2.5,-3.9,29.41,SW,217,0.0,1.0,74,0.00,,,0.00,Weather View 32 v70,2013-02-12 21:19:00,
2013-02-12 12:24:00,3.1,-3.3,29.41,SW,217,0.0,1.0,74,0.00,,,0.00,Weather View 32 v70,2013-02-12 21:24:00,
2013-02-12 12:30:00,3.4,-3.3,29.41,SW,217,0.0,1.0,73,0.00,,,0.00,Weather View 32 v70,2013-02-12 21:30:00,
2013-02-12 12:35:00,3.9,-2.8,29.40,SW,217,1.0,1.0,73,0.00,,,0.00,Weather View 32 v70,2013-02-12 21:35:00,
2013-02-12 12:40:00,4.5,-1.9,29.41,SW,217,0.0,2.0,74,0.00,,,0.00,Weather View 32 v70,2013-02-12 21:40:00,
2013-02-12 12:45:00,5.0,-1.5,29.41,SW,217,0.0,2.0,74,0.00,,,0.00,Weather View 32 v70,2013-02-12 21:45:00,
2013-02-12 12:50:00,5.5,-1.0,29.41,SW,217,0.0,2.0,74,0.00,,,0.00,Weather View 32 v70,2013-02-12 21:50:00,
2013-02-12 12:55:00,6.1,-0.4,29.41,SW,217,0.0,2.0,74,0.00,,,0.00,Weather View 32 v70,2013-02-12 21:55:00,
2013-02-12 13:00:00,6.5,0.3,29.41,SW,217,0.0,2.0,75,0.00,,,0.00,Weather View 32 v70,2013-02-12 22:00:00,
2013-02-12 13:05:00,7.0,0.8,29.41,SW,217,1.0,2.0,75,0.00,,,0.00,Weather View 32 v70,2013-02-12 22:05:00,
2013-02-12 13:10:00,7.3,0.8,29.41,SW,217,0.0,2.0,74,0.00,,,0.00,Weather View 32 v70,2013-02-12 22:10:00,
2013-02-12 13:15:00,7.6,1.3,29.41,SW,217,1.0,2.0,75,0.00,,,0.00,Weather View 32 v70,2013-02-12 22:15:00,
2013-02-12 13:20:00,7.9,1.3,29.41,SW,217,1.0,2.0,74,0.00,,,0.00,Weather View 32 v70,2013-02-12 22:20:00,
2013-02-12 13:25:00,8.2,1.6,29.41,SW,217,0.0,2.0,74,0.00,,,0.00,Weather View 32 v70,2013-02-12 22:25:00,
2013-02-12 13:30:00,8.5,2.2,29.41,SW,217,0.0,2.0,75,0.00,,,0.00,Weather View 32 v70,2013-02-12 22:30:00,
2013-02-12 13:35:00,8.8,2.5,29.41,SW,217,0.0,2.0,75,0.00,,,0.00,Weather View 32 v70,2013-02-12 22:35:00,
2013-02-12 13:40:00,9.0,2.7,29.41,SW,217,0.0,2.0,75,0.00,,,0.00,Weather View 32 v70,2013-02-12 22:40:00,
2013-02-12 13:45:00,9.2,2.9,29.41,SW,217,0.0,2.0,75,0.00,,,0.00,Weather View 32 v70,2013-02-12 22:45:00,
2013-02-12 13:50:00,9.5,3.2,29.41,SW,217,2.0,2.0,75,0.00,,,0.00,Weather View 32 v70,2013-02-12 22:50:00,
2013-02-12 13:55:00,9.7,3.1,29.41,SW,217,1.0,2.0,74,0.00,,,0.00,Weather View 32 v70,2013-02-12 22:55:00,
2013-02-12 14:00:00,9.8,3.2,29.41,SW,217,0.0,2.0,74,0.00,,,0.00,Weather View 32 v70,2013-02-12 23:00:00,
2013-02-12 14:05:00,10.1,3.8,29.41,SW,217,0.0,2.0,75,0.00,,,0.00,Weather View 32 v70,2013-02-12 23:05:00,
2013-02-12 14:10:00,10.3,4.0,29.41,SW,217,0.0,2.0,75,0.00,,,0.00,Weather View 32 v70,2013-02-12 23:10:00,
2013-02-12 14:15:00,10.5,4.2,29.41,SW,217,0.0,2.0,75,0.00,,,0.00,Weather View 32 v70,2013-02-12 23:15:00,
2013-02-12 14:20:00,10.7,4.3,29.41,SW,217,1.0,2.0,75,0.00,,,0.00,Weather View 32 v70,2013-02-12 23:20:00,
2013-02-12 14:25:00,11.0,4.6,29.41,SW,217,0.0,2.0,75,0.00,,,0.00,Weather View 32 v70,2013-02-12 23:25:00,
2013-02-12 14:30:00,11.3,4.9,29.41,SW,217,0.0,2.0,75,0.00,,,0.00,Weather View 32 v70,2013-02-12 23:30:00,
2013-02-12 14:35:00,11.6,5.2,29.41,SW,217,0.0,2.0,75,0.00,,,0.00,Weather View 32 v70,2013-02-12 23:35:00,
2013-02-12 14:40:00,11.8,5.4,29.41,SW,217,0.0,2.0,75,0.00,,,0.00,Weather View 32 v70,2013-02-12 23:40:00,
2013-02-12 14:45:00,12.1,5.4,29.41,SW,217,0.0,2.0,74,0.00,,,0.00,Weather View 32 v70,2013-02-12 23:45:00,
2013-02-12 14:50:00,12.2,5.5,29.41,SW,217,0.0,2.0,74,0.00,,,0.00,Weather View 32 v70,2013-02-12 23:50:00,
2013-02-12 14:55:00,12.4,5.4,29.41,SW,217,0.0,2.0,73,0.00,,,0.00,Weather View 32 v70,2013-02-12 23:55:00,
2013-02-12 15:00:00,12.6,5.6,29.41,SW,217,0.0,2.0,73,0.00,,,0.00,Weather View 32 v70,2013-02-13 00:00:00,
2013-02-12 15:05:00,12.7,5.7,29.41,SW,217,0.0,2.0,73,0.00,,,0.00,Weather View 32 v70,2013-02-13 00:05:00,
2013-02-12 15:09:00,12.9,5.9,29.41,SW,217,0.0,2.0,73,0.00,,,0.00,Weather View 32 v70,2013-02-13 00:09:00,
2013-02-12 15:15:00,13.1,6.1,29.41,SW,217,0.0,2.0,73,0.00,,,0.00,Weather View 32 v70,2013-02-13 00:15:00,
2013-02-12 15:19:00,13.2,5.9,29.41,SW,217,0.0,2.0,72,0.00,,,0.00,Weather View 32 v70,2013-02-13 00:19:00,
2013-02-12 15:24:00,13.3,6.0,29.41,SW,217,0.0,2.0,72,0.00,,,0.00,Weather View 32 v70,2013-02-13 00:24:00,
2013-02-12 15:29:00,13.3,6.0,29.41,SW,217,0.0,1.0,73,0.00,,,0.00,Weather View 32 v70,2013-02-13 00:29:00,
2013-02-12 15:34:00,13.3,6.3,29.41,SW,217,0.0,1.0,73,0.00,,,0.00,Weather View 32 v70,2013-02-13 00:34:00,
2013-02-12 15:39:00,13.3,6.0,29.41,SW,217,0.0,1.0,72,0.00,,,0.00,Weather View 32 v70,2013-02-13 00:39:00,
2013-02-12 15:44:00,13.2,5.9,29.41,SW,217,0.0,1.0,72,0.00,,,0.00,Weather View 32 v70,2013-02-13 00:44:00,
2013-02-12 15:49:00,13.1,5.8,29.42,SW,217,0.0,1.0,72,0.00,,,0.00,Weather View 32 v70,2013-02-13 00:49:00,
2013-02-12 15:54:00,13.0,6.0,29.42,SW,217,0.0,1.0,73,0.00,,,0.00,Weather View 32 v70,2013-02-13 00:54:00,
2013-02-12 15:59:00,13.0,6.0,29.42,SW,217,0.0,1.0,73,0.00,,,0.00,Weather View 32 v70,2013-02-13 00:59:00,
2013-02-12 16:00:00,13.0,5.7,29.42,SW,217,0.0,1.0,72,0.00,,,0.00,Weather View 32 v70,2013-02-13 01:00:00,
2013-02-12 16:04:00,12.9,5.9,29.41,SW,217,0.0,1.0,73,0.00,,,0.00,Weather View 32 v70,2013-02-13 01:04:00,
2013-02-12 16:09:00,12.9,5.9,29.41,SW,217,0.0,0.0,73,0.00,,,0.00,Weather View 32 v70,2013-02-13 01:09:00,
2013-02-12 16:14:00,12.9,5.9,29.42,SW,217,0.0,0.0,73,0.00,,,0.00,Weather View 32 v70,2013-02-13 01:14:00,
2013-02-12 16:19:00,12.8,5.8,29.42,SW,217,0.0,0.0,73,0.00,,,0.00,Weather View 32 v70,2013-02-13 01:19:00,
2013-02-12 16:24:00,12.6,5.6,29.42,SW,217,0.0,0.0,73,0.00,,,0.00,Weather View 32 v70,2013-02-13 01:24:00,
2013-02-12 16:29:00,12.4,5.4,29.42,SW,217,0.0,0.0,73,0.00,,,0.00,Weather View 32 v70,2013-02-13 01:29:00,
2013-02-12 16:34:00,12.1,5.1,29.42,SW,217,0.0,0.0,73,0.00,,,0.00,Weather View 32 v70,2013-02-13 01:34:00,
2013-02-12 16:39:00,11.8,4.5,29.42,SW,217,0.0,0.0,72,0.00,,,0.00,Weather View 32 v70,2013-02-13 01:39:00,
2013-02-12 16:44:00,11.5,4.5,29.42,SW,217,0.0,0.0,73,0.00,,,0.00,Weather View 32 v70,2013-02-13 01:44:00,
2013-02-12 16:49:00,11.0,4.1,29.42,SW,217,0.0,0.0,73,0.00,,,0.00,Weather View 32 v70,2013-02-13 01:49:00,
2013-02-12 16:54:00,10.6,3.7,29.42,SW,217,0.0,0.0,73,0.00,,,0.00,Weather View 32 v70,2013-02-13 01:54:00,
2013-02-12 16:59:00,10.0,2.8,29.42,SW,217,0.0,0.0,72,0.00,,,0.00,Weather View 32 v70,2013-02-13 01:59:00,
2013-02-12 17:00:00,10.1,2.9,29.42,SW,217,0.0,0.0,72,0.00,,,0.00,Weather View 32 v70,2013-02-13 02:00:00,
2013-02-12 17:04:00,9.4,2.2,29.42,SW,217,0.0,0.0,72,0.00,,,0.00,Weather View 32 v70,2013-02-13 02:04:00,
2013-02-12 17:09:00,8.8,1.3,29.41,SW,217,0.0,0.0,71,0.00,,,0.00,Weather View 32 v70,2013-02-13 02:09:00,
2013-02-12 17:14:00,8.1,0.7,29.41,SW,217,0.0,0.0,71,0.00,,,0.00,Weather View 32 v70,2013-02-13 02:14:00,
2013-02-12 17:19:00,7.5,-0.2,29.41,SW,217,0.0,0.0,70,0.00,,,0.00,Weather View 32 v70,2013-02-13 02:19:00,
2013-02-12 17:24:00,6.9,-0.8,29.41,SW,217,0.0,0.0,70,0.00,,,0.00,Weather View 32 v70,2013-02-13 02:24:00,
2013-02-12 17:29:00,5.9,-1.8,29.42,SW,217,0.0,1.0,70,0.00,,,0.00,Weather View 32 v70,2013-02-13 02:29:00,
2013-02-12 17:34:00,5.5,-1.9,29.42,SW,217,0.0,1.0,71,0.00,,,0.00,Weather View 32 v70,2013-02-13 02:34:00,
2013-02-12 17:39:00,5.1,-2.2,29.42,SW,217,0.0,1.0,71,0.00,,,0.00,Weather View 32 v70,2013-02-13 02:39:00,
2013-02-12 17:44:00,4.7,-2.9,29.42,SW,217,0.0,1.0,70,0.00,,,0.00,Weather View 32 v70,2013-02-13 02:44:00,
2013-02-12 17:49:00,4.0,-3.9,29.42,SW,217,0.0,1.0,69,0.00,,,0.00,Weather View 32 v70,2013-02-13 02:49:00,
2013-02-12 17:54:00,3.2,-5.0,29.42,SW,217,0.0,1.0,68,0.00,,,0.00,Weather View 32 v70,2013-02-13 02:54:00,
2013-02-12 17:59:00,2.8,-5.0,29.42,SW,217,0.0,1.0,69,0.00,,,0.00,Weather View 32 v70,2013-02-13 02:59:00,
2013-02-12 18:00:00,2.8,-5.0,29.42,SW,217,0.0,1.0,69,0.00,,,0.00,Weather View 32 v70,2013-02-13 03:00:00,
2013-02-12 18:04:00,2.0,-6.1,29.42,SW,217,0.0,1.0,68,0.00,,,0.00,Weather View 32 v70,2013-02-13 03:04:00,
2013-02-12 18:09:00,1.7,-6.1,29.42,SW,217,0.0,1.0,69,0.00,,,0.00,Weather View 32 v70,2013-02-13 03:09:00,
2013-02-12 18:14:00,1.3,-6.5,29.42,SW,217,0.0,1.0,69,0.00,,,0.00,Weather View 32 v70,2013-02-13 03:14:00,
2013-02-12 18:19:00,0.7,-7.7,29.42,SW,217,0.0,1.0,67,0.00,,,0.00,Weather View 32 v70,2013-02-13 03:19:00,
2013-02-12 18:24:00,0.2,-7.8,29.42,SW,217,0.0,1.0,68,0.00,,,0.00,Weather View 32 v70,2013-02-13 03:24:00,
2013-02-12 18:29:00,-0.1,-8.1,29.42,SW,217,0.0,1.0,68,0.00,,,0.00,Weather View 32 v70,2013-02-13 03:29:00,
2013-02-12 18:34:00,-0.6,-8.9,29.42,SW,217,0.0,0.0,67,0.00,,,0.00,Weather View 32 v70,2013-02-13 03:34:00,
2013-02-12 18:39:00,-1.0,-9.3,29.42,SW,217,0.0,0.0,67,0.00,,,0.00,Weather View 32 v70,2013-02-13 03:39:00,
2013-02-12 18:44:00,-1.3,-9.6,29.42,SW,217,0.0,0.0,68,0.00,,,0.00,Weather View 32 v70,2013-02-13 03:44:00,
2013-02-12 18:49:00,-1.6,-9.9,29.42,SW,217,0.0,0.0,67,0.00,,,0.00,Weather View 32 v70,2013-02-13 03:49:00,
2013-02-12 18:54:00,-2.0,-10.3,29.42,SW,217,0.0,0.0,67,0.00,,,0.00,Weather View 32 v70,2013-02-13 03:54:00,
2013-02-12 18:59:00,-2.4,-10.6,29.43,SW,217,0.0,0.0,67,0.00,,,0.00,Weather View 32 v70,2013-02-13 03:59:00,
2013-02-12 19:00:00,-2.3,-10.5,29.43,SW,217,0.0,0.0,67,0.00,,,0.00,Weather View 32 v70,2013-02-13 04:00:00,
2013-02-12 19:04:00,-2.7,-10.9,29.43,SW,217,0.0,1.0,67,0.00,,,0.00,Weather View 32 v70,2013-02-13 04:04:00,
2013-02-12 19:09:00,-3.1,-11.6,29.42,SW,217,0.0,1.0,66,0.00,,,0.00,Weather View 32 v70,2013-02-13 04:09:00,
2013-02-12 19:14:00,-3.7,-12.2,29.42,SW,217,0.0,1.0,66,0.00,,,0.00,Weather View 32 v70,2013-02-13 04:14:00,
2013-02-12 19:19:00,-4.0,-12.5,29.42,SW,217,0.0,1.0,66,0.00,,,0.00,Weather View 32 v70,2013-02-13 04:19:00,
2013-02-12 19:24:00,-4.3,-13.1,29.42,SW,217,0.0,1.0,65,0.00,,,0.00,Weather View 32 v70,2013-02-13 04:24:00,
2013-02-12 19:29:00,-4.7,-13.4,29.42,SW,217,0.0,1.0,65,0.00,,,0.00,Weather View 32 v70,2013-02-13 04:29:00,
2013-02-12 19:34:00,-4.9,-13.3,29.42,SW,217,0.0,1.0,66,0.00,,,0.00,Weather View 32 v70,2013-02-13 04:34:00,
2013-02-12 19:39:00,-4.9,-13.3,29.42,SW,217,0.0,1.0,66,0.00,,,0.00,Weather View 32 v70,2013-02-13 04:39:00,
2013-02-12 19:44:00,-4.8,-12.9,29.43,SW,217,0.0,1.0,67,0.00,,,0.00,Weather View 32 v70,2013-02-13 04:44:00,
2013-02-12 19:49:00,-5.0,-13.1,29.43,SW,217,0.0,1.0,67,0.00,,,0.00,Weather View 32 v70,2013-02-13 04:49:00,
2013-02-12 19:54:00,-5.2,-13.6,29.43,SW,217,0.0,1.0,66,0.00,,,0.00,Weather View 32 v70,2013-02-13 04:54:00,
2013-02-12 19:59:00,-5.4,-13.8,29.43,SW,217,0.0,1.0,66,0.00,,,0.00,Weather View 32 v70,2013-02-13 04:59:00,
2013-02-12 20:00:00,-5.4,-13.8,29.43,SW,217,0.0,1.0,66,0.00,,,0.00,Weather View 32 v70,2013-02-13 05:00:00,
2013-02-12 20:05:00,-5.6,-14.3,29.43,SW,217,0.0,1.0,65,0.00,,,0.00,Weather View 32 v70,2013-02-13 05:05:00,
2013-02-12 20:10:00,-5.9,-14.6,29.42,SW,217,0.0,0.0,65,0.00,,,0.00,Weather View 32 v70,2013-02-13 05:10:00,
2013-02-12 20:15:00,-6.1,-14.8,29.42,SW,217,0.0,0.0,65,0.00,,,0.00,Weather View 32 v70,2013-02-13 05:15:00,
2013-02-12 20:20:00,-6.2,-14.6,29.42,SW,217,0.0,0.0,66,0.00,,,0.00,Weather View 32 v70,2013-02-13 05:20:00,
2013-02-12 20:25:00,-6.4,-15.1,29.42,SW,217,0.0,0.0,65,0.00,,,0.00,Weather View 32 v70,2013-02-13 05:25:00,
2013-02-12 20:30:00,-6.5,-15.2,29.42,SW,217,0.0,1.0,65,0.00,,,0.00,Weather View 32 v70,2013-02-13 05:30:00,
2013-02-12 20:35:00,-6.5,-15.2,29.42,SW,217,0.0,1.0,65,0.00,,,0.00,Weather View 32 v70,2013-02-13 05:35:00,
2013-02-12 20:40:00,-6.7,-15.4,29.42,SW,217,0.0,1.0,65,0.00,,,0.00,Weather View 32 v70,2013-02-13 05:40:00,
2013-02-12 20:45:00,-6.9,-15.6,29.42,SW,217,0.0,1.0,65,0.00,,,0.00,Weather View 32 v70,2013-02-13 05:45:00,
2013-02-12 20:50:00,-7.2,-15.8,29.42,SW,217,0.0,1.0,65,0.00,,,0.00,Weather View 32 v70,2013-02-13 05:50:00,
2013-02-12 20:55:00,-7.3,-15.9,29.42,SW,217,0.0,1.0,65,0.00,,,0.00,Weather View 32 v70,2013-02-13 05:55:00,
2013-02-12 21:00:00,-7.6,-16.5,29.42,SW,217,0.0,1.0,64,0.00,,,0.00,Weather View 32 v70,2013-02-13 06:00:00,
2013-02-12 21:05:00,-7.7,-16.6,29.42,SW,217,0.0,1.0,64,0.00,,,0.00,Weather View 32 v70,2013-02-13 06:05:00,
2013-02-12 21:10:00,-7.9,-16.8,29.42,SW,217,0.0,1.0,64,0.00,,,0.00,Weather View 32 v70,2013-02-13 06:10:00,
2013-02-12 21:15:00,-8.0,-16.9,29.42,SW,217,0.0,1.0,64,0.00,,,0.00,Weather View 32 v70,2013-02-13 06:15:00,
2013-02-12 21:20:00,-8.1,-17.0,29.42,SW,217,0.0,1.0,64,0.00,,,0.00,Weather View 32 v70,2013-02-13 06:20:00,
2013-02-12 21:25:00,-8.2,-17.1,29.42,SW,217,0.0,1.0,64,0.00,,,0.00,Weather View 32 v70,2013-02-13 06:25:00,
2013-02-12 21:30:00,-8.4,-17.3,29.42,SW,217,0.0,0.0,64,0.00,,,0.00,Weather View 32 v70,2013-02-13 06:30:00,
2013-02-12 21:35:00,-8.5,-17.4,29.42,SW,217,0.0,0.0,64,0.00,,,0.00,Weather View 32 v70,2013-02-13 06:35:00,
2013-02-12 21:40:00,-8.7,-17.6,29.42,SW,217,0.0,0.0,64,0.00,,,0.00,Weather View 32 v70,2013-02-13 06:40:00,
2013-02-12 21:45:00,-8.8,-17.7,29.42,SW,217,0.0,0.0,64,0.00,,,0.00,Weather View 32 v70,2013-02-13 06:45:00,
2013-02-12 21:50:00,-9.1,-18.0,29.42,SW,217,0.0,0.0,64,0.00,,,0.00,Weather View 32 v70,2013-02-13 06:50:00,
2013-02-12 21:55:00,-9.2,-18.4,29.42,SW,217,0.0,0.0,63,0.00,,,0.00,Weather View 32 v70,2013-02-13 06:55:00,
2013-02-12 22:00:00,-9.3,-18.5,29.42,SW,217,0.0,0.0,63,0.00,,,0.00,Weather View 32 v70,2013-02-13 07:00:00,
2013-02-12 22:05:00,-9.5,-18.6,29.42,SW,217,0.0,0.0,63,0.00,,,0.00,Weather View 32 v70,2013-02-13 07:05:00,
2013-02-12 22:10:00,-9.6,-18.7,29.42,SW,217,0.0,0.0,63,0.00,,,0.00,Weather View 32 v70,2013-02-13 07:10:00,
2013-02-12 22:15:00,-9.8,-18.9,29.42,SW,217,0.0,0.0,63,0.00,,,0.00,Weather View 32 v70,2013-02-13 07:15:00,
2013-02-12 22:20:00,-10.0,-19.1,29.42,SW,217,0.0,0.0,63,0.00,,,0.00,Weather View 32 v70,2013-02-13 07:20:00,
2013-02-12 22:25:00,-10.1,-19.2,29.42,SW,217,0.0,0.0,63,0.00,,,0.00,Weather View 32 v70,2013-02-13 07:25:00,
2013-02-12 22:30:00,-10.2,-19.3,29.42,SW,217,0.0,0.0,63,0.00,,,0.00,Weather View 32 v70,2013-02-13 07:30:00,
2013-02-12 22:35:00,-10.4,-19.5,29.42,SW,217,0.0,0.0,63,0.00,,,0.00,Weather View 32 v70,2013-02-13 07:35:00,
2013-02-12 22:40:00,-10.5,-19.6,29.41,SW,217,0.0,0.0,63,0.00,,,0.00,Weather View 32 v70,2013-02-13 07:40:00,
2013-02-12 22:45:00,-10.6,-20.0,29.41,SW,217,0.0,0.0,62,0.00,,,0.00,Weather View 32 v70,2013-02-13 07:45:00,
2013-02-12 22:50:00,-10.6,-19.7,29.42,SW,217,0.0,0.0,63,0.00,,,0.00,Weather View 32 v70,2013-02-13 07:50:00,
2013-02-12 22:55:00,-10.6,-19.7,29.42,SW,217,0.0,0.0,63,0.00,,,0.00,Weather View 32 v70,2013-02-13 07:55:00,
2013-02-12 23:00:00,-10.8,-19.9,29.42,SW,217,0.0,0.0,63,0.00,,,0.00,Weather View 32 v70,2013-02-13 08:00:00,
2013-02-12 23:05:00,-10.8,-19.9,29.42,SW,217,0.0,0.0,63,0.00,,,0.00,Weather View 32 v70,2013-02-13 08:05:00,
2013-02-12 23:10:00,-10.9,-20.0,29.42,SW,217,0.0,0.0,63,0.00,,,0.00,Weather View 32 v70,2013-02-13 08:10:00,
2013-02-12 23:15:00,-10.9,-20.0,29.42,SW,217,0.0,0.0,63,0.00,,,0.00,Weather View 32 v70,2013-02-13 08:15:00,
2013-02-12 23:20:00,-11.0,-20.4,29.42,SW,217,0.0,0.0,62,0.00,,,0.00,Weather View 32 v70,2013-02-13 08:20:00,
2013-02-12 23:25:00,-11.2,-20.6,29.42,SW,217,0.0,0.0,62,0.00,,,0.00,Weather View 32 v70,2013-02-13 08:25:00,
2013-02-12 23:30:00,-11.3,-20.7,29.42,SW,217,0.0,0.0,62,0.00,,,0.00,Weather View 32 v70,2013-02-13 08:30:00,
2013-02-12 23:35:00,-11.4,-20.8,29.42,SW,217,0.0,0.0,62,0.00,,,0.00,Weather View 32 v70,2013-02-13 08:35:00,
2013-02-12 23:40:00,-11.6,-21.0,29.42,SW,217,0.0,0.0,62,0.00,,,0.00,Weather View 32 v70,2013-02-13 08:40:00,
2013-02-12 23:45:00,-11.8,-21.5,29.42,SW,217,0.0,0.0,61,0.00,,,0.00,Weather View 32 v70,2013-02-13 08:45:00,
2013-02-12 23:50:00,-12.0,-21.6,29.42,SW,217,0.0,0.0,61,0.00,,,0.00,Weather View 32 v70,2013-02-13 08:50:00,
2013-02-12 23:55:00,-12.2,-21.8,29.42,SW,217,0.0,0.0,61,0.00,,,0.00,Weather View 32 v70,2013-02-13 08:55:00,